WetterOnline ( https://www.wetteronline.de )

Wetter aktuell Frankfurt am Main

Aktuelles Wetter: Offenbach (119m)

6-stündlich | Neueste Meldungen
Ortszeit Temperatur Wetter
Di, 15.10. 8:00 11.3° C bewölkt
Di, 15.10. 2:00 12.3° C leicht bewölkt
Mo, 14.10. 20:00 18.0° C wolkenlos
Mo, 14.10. 14:00 23.7° C fast wolkenlos
Mo, 14.10. 8:00 11.5° C bewölkt
Mo, 14.10. 2:00 14.0° C fast wolkenlos
So, 13.10. 20:00 18.5° C wolkenlos
So, 13.10. 14:00 24.1° C bewölkt
Ortszeit Temperatur Wetter
Di, 15.10. 10:30 17.2° C bedeckt
Di, 15.10. 10:20 17.2° C bedeckt
Di, 15.10. 10:10 16.2° C bedeckt
Di, 15.10. 10:00 15.9° C wolkig
Di, 15.10. 9:50 15.9° C bewölkt
Di, 15.10. 9:40 15.3° C wolkig
Di, 15.10. 9:30 12.9° C wolkig
Di, 15.10. 9:00 11.6° C wolkig
Di, 15.10. 8:30 11.6° C wolkig
Di, 15.10. 8:00 11.3° C bewölkt
Di, 15.10. 7:30 11.3° C bedeckt
Ortszeit Relative Feuchte Sichtweite
Di, 15.10. 8:00 100% 10 km
Di, 15.10. 2:00 98% 18 km
Mo, 14.10. 20:00 80% 35 km
Mo, 14.10. 14:00 51% 50 km
Mo, 14.10. 8:00 100% 5.0 km
Mo, 14.10. 2:00 97% 19 km
So, 13.10. 20:00 80% 45 km
So, 13.10. 14:00 52% 50 km
Ortszeit Relative Feuchte Sichtweite
Di, 15.10. 10:30 78% 35 km
Di, 15.10. 10:20 78% -
Di, 15.10. 10:10 78% -
Di, 15.10. 10:00 80% 35 km
Di, 15.10. 9:50 80% -
Di, 15.10. 9:40 84% -
Di, 15.10. 9:30 93% 17 km
Di, 15.10. 9:00 97% 11 km
Di, 15.10. 8:30 99% 6 km
Di, 15.10. 8:00 100% 10 km
Di, 15.10. 7:30 99% 15 km
Ortszeit Niederschlagsmenge Niederschlagsart
Di, 15.10. 8:00 0.0 l/m2 in 12 Std. -
Di, 15.10. 2:00 0.0 l/m2 in 6 Std. -
Mo, 14.10. 20:00 0.0 l/m2 in 12 Std. -
Mo, 14.10. 14:00 0.0 l/m2 in 6 Std. -
Mo, 14.10. 8:00 0.0 l/m2 in 12 Std. -
Mo, 14.10. 2:00 0.0 l/m2 in 6 Std. -
So, 13.10. 20:00 0.0 l/m2 in 12 Std. -
So, 13.10. 14:00 0.1 l/m2 in 6 Std. -
Ortszeit Niederschlagsmenge Niederschlagsart
Di, 15.10. 10:30 0.0 l/m2 in 1 Std. -
Di, 15.10. 10:20 keine Meldung -
Di, 15.10. 10:10 keine Meldung -
Di, 15.10. 10:00 0.0 l/m2 in 1 Std. -
Di, 15.10. 9:50 keine Meldung -
Di, 15.10. 9:40 keine Meldung -
Di, 15.10. 9:30 0.0 l/m2 in 1 Std. -
Di, 15.10. 9:00 0.0 l/m2 in 1 Std. -
Di, 15.10. 8:30 0.0 l/m2 in 1 Std. -
Di, 15.10. 8:00 0.0 l/m2 in 1 Std. -
Di, 15.10. 7:30 0.0 l/m2 in 1 Std. -
Ortszeit Stärke Spitze Richtung
km/h Bft. km/h Grad Sektor
Di, 15.10. 8:00 4 1 14 40° NO
Di, 15.10. 2:00 2 1 15 160° S
Mo, 14.10. 20:00 7 2 22 100° O
Mo, 14.10. 14:00 13 3 24 150° SO
Mo, 14.10. 8:00 4 1 11 130° SO
Mo, 14.10. 2:00 4 1 14 100° O
So, 13.10. 20:00 9 2 39 150° SO
So, 13.10. 14:00 15 3 26 170° S
Ortszeit Stärke Spitze Richtung
km/h Bft. km/h Grad Sektor
Di, 15.10. 10:30 6 1 11 100° O
Di, 15.10. 10:20 6 1 - 100° O
Di, 15.10. 10:10 7 2 - 30° NO
Di, 15.10. 10:00 4 1 7 40° NO
Di, 15.10. 9:50 4 1 - 40° NO
Di, 15.10. 9:40 4 1 - 30° NO
Di, 15.10. 9:30 4 1 4 30° NO
Di, 15.10. 9:00 2 1 6 290° W
Di, 15.10. 8:30 4 1 4 30° NO
Di, 15.10. 8:00 4 1 11 40° NO
Di, 15.10. 7:30 0 0 11 - -
Ortszeit Untergrenze Bedeckung Gattung
total tief tief mittel hoch
Di, 15.10. 8:00 6900 m 8/8 6/8 - - -
Di, 15.10. 2:00 10500 m 3/8 0/8 - - -
Mo, 14.10. 20:00 - 0/8 0/8 - - -
Mo, 14.10. 14:00 9000 m 2/8 0/8 - - -
Mo, 14.10. 8:00 6600 m 7/8 7/8 - - -
Mo, 14.10. 2:00 3300 m 1/8 1/8 - - -
So, 13.10. 20:00 3300 m 0/8 0/8 - - -
So, 13.10. 14:00 4200 m 7/8 7/8 - - -
Ortszeit Bedeckungsgrad in Achtel und Wolkenuntergrenze
Di, 15.10. 10:30 8(4500m)
Di, 15.10. 10:20 8(4500m)
Di, 15.10. 10:10 6(4500m) 8(5100m) 8(7500m)
Di, 15.10. 10:00 4(5100m) 7(7500m) 8(8700m)
Di, 15.10. 9:50 4(5100m) 7(7500m) 8(8700m)
Di, 15.10. 9:40 2(5400m) 7(8700m) 8(9000m)
Di, 15.10. 9:30 1(5700m) 4(9000m) 7(9000m)
Di, 15.10. 9:00 3(6300m) 6(9000m) 7(9000m)
Di, 15.10. 8:30 3(7500m) 8(9000m) 8(10500m)
Di, 15.10. 8:00 6(6900m) 8(7500m) 8(8400m)
Di, 15.10. 7:30 8(6900m)
Ortszeit Luftdruck NN (hPa) Tendenz (hPa in 3 Std.)
Di, 15.10. 8:00 1007 - 1,4
Di, 15.10. 2:00 1010 - 0,2
Mo, 14.10. 20:00 1010 - 1,3
Mo, 14.10. 14:00 1013 - 2,0
Mo, 14.10. 8:00 1015 + 0,4
Mo, 14.10. 2:00 1014 + 0,4
So, 13.10. 20:00 1012 + 0,5
So, 13.10. 14:00 1013 - 1,1
Ortszeit Luftdruck NN (hPa) Tendenz (hPa in 3 Std.)
Di, 15.10. 10:30 1007 - 0,4
Di, 15.10. 10:20 1007 keine Meldung
Di, 15.10. 10:10 1007 keine Meldung
Di, 15.10. 10:00 1007 - 0,3
Di, 15.10. 9:50 1007 keine Meldung
Di, 15.10. 9:40 1007 keine Meldung
Di, 15.10. 9:30 1007 - 0,7
Di, 15.10. 9:00 1007 - 0,9
Di, 15.10. 8:30 1007 - 1,6
Di, 15.10. 8:00 1007 - 1,4
Di, 15.10. 7:30 1008 - 1,2
Ortszeit Schneehöhe (cm)
Di, 15.10. 8:00 0
Di, 15.10. 2:00 0
Mo, 14.10. 20:00 0
Mo, 14.10. 14:00 0
Mo, 14.10. 8:00 0
Mo, 14.10. 2:00 0
So, 13.10. 20:00 0
So, 13.10. 14:00 0
Ortszeit Schneehöhe (cm)
Di, 15.10. 10:30 0
Di, 15.10. 10:20 0
Di, 15.10. 10:10 0
Di, 15.10. 10:00 0
Di, 15.10. 9:50 0
Di, 15.10. 9:40 0
Di, 15.10. 9:30 0
Di, 15.10. 9:00 0
Di, 15.10. 8:30 0
Di, 15.10. 8:00 0
Di, 15.10. 7:30 0
Link zu dieser Seite / Seite empfehlen

Das Wetter in ...